Weather History for KVLL - May, 2013

Change the Weather History Date:

Sunday, May 12, 2013

  Actual Average Record
Temperature  
Mean Temperature 43 °F -  
Max Temperature 49 °F - - ()
Min Temperature 37 °F - - ()
Degree Days  
Heating Degree Days 22    
Moisture  
Dew Point 28 °F    
Average Humidity 60    
Maximum Humidity 84    
Minimum Humidity 41    
Precipitation  
Precipitation 0.00 in - - ()
Sea Level Pressure  
Sea Level Pressure 29.97 in    
Wind  
Wind Speed 11 mph (West)    
Max Wind Speed 22 mph    
Max Gust Speed 33 mph    
Visibility 10 miles    
Events Rain    
T = Trace of Precipitation, MM = Missing Value Source: NWS Daily Summary

Daily Weather History Graph

Daily Weather History Graph

Search for Another Location

Airport or City:

Trip Planner

Search our weather history database for the weather conditions in past years. The results will help you decide how hot, cold, wet, or windy it might be!

Date:

Astronomy

May. 12, 2013 Rise Set
Actual Time 6:13 AM EDT 8:45 PM EDT
Civil Twilight 5:41 AM EDT 9:17 PM EDT
Nautical Twilight 5:01 AM EDT 9:57 PM EDT
Astronomical Twilight 4:16 AM EDT 10:42 PM EDT
Moon 8:07 AM EDT (5/12) 11:11 PM EDT (5/12)
Length of Visible Light 15h 35m
Length of Day
14h 31m
Waxing Crescent, 6% of the Moon is Illuminated
May 12
Waxing Crescent
May 18
First Quarter
May 25
Full
May 31
Last Quarter
Jun 8
New

Hourly Weather History & Observations

Time (EDT) Temp. Windchill Dew Point Humidity Pressure Visibility Wind Dir Wind Speed Gust Speed Precip Events Conditions
12:15 AM 40.3 °F 37.1 °F 32.9 °F 75% 29.90 in 10.0 mi WSW 4.6 mph - N/A   Clear
12:35 AM 39.7 °F 36.5 °F 32.9 °F 77% 29.91 in 10.0 mi SW 4.6 mph - N/A   Clear
12:54 AM 39.6 °F 35.4 °F 33.1 °F 78% 29.91 in 10.0 mi WSW 5.8 mph - N/A   Clear
1:15 AM 39.4 °F 36.1 °F 33.3 °F 79% 29.91 in 10.0 mi WSW 4.6 mph - N/A   Clear
1:34 AM 39.6 °F 35.4 °F 33.3 °F 78% 29.91 in 10.0 mi WSW 5.8 mph - N/A   Clear
1:55 AM 39.6 °F 35.4 °F 33.4 °F 79% 29.90 in 10.0 mi WSW 5.8 mph - N/A   Clear
2:15 AM 39.6 °F 35.4 °F 33.8 °F 80% 29.90 in 10.0 mi WSW 5.8 mph - N/A   Clear
2:34 AM 39.2 °F 33.6 °F 33.8 °F 81% 29.90 in 10.0 mi WSW 8.1 mph - N/A   Clear
2:55 AM 38.8 °F 33.8 °F 33.8 °F 82% 29.89 in 10.0 mi SW 6.9 mph - N/A   Clear
3:15 AM 38.3 °F 32.5 °F 33.8 °F 84% 29.89 in 10.0 mi SW 8.1 mph - N/A   Clear
3:34 AM 38.3 °F 31.9 °F 33.8 °F 84% 29.89 in 10.0 mi WSW 9.2 mph - N/A   Clear
3:55 AM 38.3 °F 31.9 °F 33.4 °F 83% 29.88 in 10.0 mi WSW 9.2 mph - N/A   Clear
4:15 AM 38.8 °F 33.2 °F 32.9 °F 79% 29.89 in 10.0 mi West 8.1 mph 16.1 mph N/A   Clear
4:35 AM 39.2 °F 32.5 °F 31.8 °F 75% 29.88 in 10.0 mi West 10.4 mph 19.6 mph N/A   Clear
4:55 AM 39.2 °F 32.0 °F 31.5 °F 74% 29.88 in 10.0 mi West 11.5 mph 18.4 mph N/A   Clear
5:35 AM 38.5 °F 32.1 °F 31.8 °F 77% 29.88 in 10.0 mi WSW 9.2 mph - N/A   Clear
5:54 AM 38.3 °F 31.4 °F 32.0 °F 78% 29.88 in 10.0 mi West 10.4 mph 17.3 mph N/A   Scattered Clouds
6:15 AM 38.3 °F 31.4 °F 32.0 °F 78% 29.88 in 10.0 mi West 10.4 mph 18.4 mph N/A   Scattered Clouds
6:34 AM 38.5 °F 32.7 °F 32.0 °F 78% 29.89 in 10.0 mi West 8.1 mph 19.6 mph N/A   Scattered Clouds
6:55 AM 39.2 °F 32.5 °F 32.0 °F 75% 29.89 in 10.0 mi West 10.4 mph 25.3 mph N/A   Mostly Cloudy
7:15 AM 39.2 °F 30.2 °F 32.0 °F 75% 29.90 in 10.0 mi West 17.3 mph 25.3 mph N/A   Overcast
7:34 AM 39.6 °F 31.7 °F 30.7 °F 71% 29.90 in 10.0 mi WNW 13.8 mph 23.0 mph N/A   Overcast
7:55 AM 39.9 °F 30.8 °F 30.4 °F 69% 29.91 in 10.0 mi WNW 18.4 mph 24.2 mph N/A   Overcast
8:15 AM 40.3 °F 32.2 °F 30.6 °F 68% 29.91 in 10.0 mi West 15.0 mph 20.7 mph N/A   Overcast
8:35 AM 40.5 °F 32.5 °F 30.2 °F 67% 29.91 in 10.0 mi West 15.0 mph 21.9 mph N/A   Mostly Cloudy
8:55 AM 42.1 °F 32.8 °F 29.7 °F 61% 29.92 in 10.0 mi WNW 21.9 mph 28.8 mph N/A   Mostly Cloudy
9:14 AM 42.4 °F 36.1 °F 29.3 °F 60% 29.92 in 10.0 mi West 11.5 mph 27.6 mph N/A   Mostly Cloudy
9:35 AM 42.4 °F 33.8 °F 29.3 °F 60% 29.93 in 10.0 mi West 19.6 mph 29.9 mph N/A   Overcast
9:55 AM 42.3 °F 35.1 °F 30.2 °F 62% 29.93 in 10.0 mi West 13.8 mph 20.7 mph N/A   Overcast
10:15 AM 42.8 °F 34.8 °F 29.7 °F 60% 29.93 in 10.0 mi West 17.3 mph 27.6 mph N/A   Overcast
10:35 AM 43.2 °F 34.2 °F 29.1 °F 58% 29.94 in 10.0 mi WNW 21.9 mph 28.8 mph N/A   Overcast
10:55 AM 43.0 °F 35.7 °F 28.2 °F 56% 29.94 in 10.0 mi WNW 15.0 mph 26.5 mph N/A   Overcast
11:15 AM 43.2 °F 34.7 °F 28.0 °F 55% 29.95 in 10.0 mi West 19.6 mph 25.3 mph N/A   Overcast
11:35 AM 45.3 °F 38.1 °F 28.8 °F 52% 29.95 in 10.0 mi West 17.3 mph 25.3 mph N/A   Overcast
11:54 AM 44.8 °F 37.4 °F 27.7 °F 51% 29.95 in 10.0 mi WNW 17.3 mph 25.3 mph N/A   Overcast
12:15 PM 45.5 °F 37.6 °F 27.1 °F 49% 29.94 in 10.0 mi West 20.7 mph 32.2 mph N/A   Overcast
12:35 PM 46.2 °F 39.5 °F 26.4 °F 46% 29.94 in 10.0 mi West 16.1 mph 32.2 mph N/A   Overcast
12:55 PM 45.7 °F 38.8 °F 27.1 °F 48% 29.95 in 10.0 mi West 16.1 mph 25.3 mph N/A   Overcast
1:15 PM 47.3 °F - 25.7 °F 43% 29.95 in 10.0 mi West 16.1 mph 24.2 mph N/A   Mostly Cloudy
1:35 PM 48.0 °F - 27.0 °F 44% 29.95 in 10.0 mi West 13.8 mph 26.5 mph N/A   Overcast
1:55 PM 48.6 °F - 25.5 °F 41% 29.95 in 10.0 mi West 18.4 mph 28.8 mph N/A   Overcast
2:15 PM 48.6 °F - 25.7 °F 41% 29.96 in 10.0 mi West 16.1 mph 27.6 mph N/A   Overcast
2:35 PM 49.3 °F - 27.0 °F 42% 29.96 in 10.0 mi West 18.4 mph 26.5 mph N/A   Mostly Cloudy
2:55 PM 47.3 °F - 26.4 °F 44% 29.96 in 10.0 mi West 18.4 mph 29.9 mph N/A   Overcast
3:15 PM 46.4 °F 39.5 °F 29.5 °F 52% 29.97 in 10.0 mi West 17.3 mph 27.6 mph N/A Rain Light Rain
3:34 PM 47.7 °F - 28.0 °F 47% 29.97 in 10.0 mi WNW 13.8 mph 25.3 mph N/A   Overcast
3:55 PM 46.6 °F - 28.8 °F 50% 29.98 in 10.0 mi West 18.4 mph 28.8 mph N/A Rain Light Rain
4:14 PM 48.2 °F - 27.9 °F 45% 29.98 in 10.0 mi West 17.3 mph 33.4 mph N/A   Overcast
4:35 PM 46.9 °F - 28.0 °F 48% 29.99 in 10.0 mi WNW 19.6 mph 26.5 mph N/A   Overcast
4:55 PM 46.4 °F 39.8 °F 27.3 °F 47% 30.00 in 10.0 mi WNW 16.1 mph 26.5 mph N/A   Overcast
5:14 PM 46.2 °F 38.5 °F 26.6 °F 46% 30.01 in 10.0 mi WNW 20.7 mph 27.6 mph N/A   Overcast
5:35 PM 44.6 °F 36.4 °F 26.4 °F 49% 30.02 in 10.0 mi NW 20.7 mph 31.1 mph N/A   Overcast
5:55 PM 44.6 °F 36.9 °F 25.7 °F 48% 30.02 in 10.0 mi WNW 18.4 mph 25.3 mph N/A   Overcast
6:14 PM 43.7 °F 36.3 °F 25.5 °F 49% 30.03 in 10.0 mi WNW 16.1 mph 29.9 mph N/A   Overcast
6:35 PM 43.5 °F 36.1 °F 24.1 °F 46% 30.04 in 10.0 mi West 16.1 mph 29.9 mph N/A   Overcast
6:55 PM 43.0 °F 36.4 °F 24.1 °F 47% 30.04 in 10.0 mi West 12.7 mph 26.5 mph N/A   Overcast
7:14 PM 42.8 °F 35.8 °F 25.7 °F 51% 30.05 in 10.0 mi WNW 13.8 mph 21.9 mph N/A   Overcast
7:35 PM 42.8 °F 34.8 °F 25.0 °F 49% 30.05 in 10.0 mi WNW 17.3 mph 24.2 mph N/A   Overcast
7:54 PM 42.6 °F 35.2 °F 25.2 °F 50% 30.06 in 10.0 mi WNW 15.0 mph 18.4 mph N/A   Overcast
8:15 PM 42.3 °F 34.8 °F 24.6 °F 50% 30.07 in 10.0 mi WNW 15.0 mph 19.6 mph N/A   Overcast
8:35 PM 41.9 °F 35.0 °F 23.0 °F 47% 30.07 in 10.0 mi NW 12.7 mph 23.0 mph N/A   Overcast
8:54 PM 41.5 °F 33.5 °F 21.7 °F 45% 30.08 in 10.0 mi WNW 16.1 mph 24.2 mph N/A   Overcast
9:15 PM 41.2 °F 33.7 °F 21.6 °F 46% 30.08 in 10.0 mi NW 13.8 mph 19.6 mph N/A   Overcast
9:35 PM 41.0 °F 35.2 °F 22.1 °F 47% 30.09 in 10.0 mi NW 9.2 mph 16.1 mph N/A   Overcast
9:55 PM 40.3 °F 34.9 °F 22.8 °F 50% 30.09 in 10.0 mi NW 8.1 mph - N/A   Mostly Cloudy
10:15 PM 39.9 °F 33.4 °F 23.0 °F 51% 30.10 in 10.0 mi NW 10.4 mph - N/A   Scattered Clouds
10:35 PM 39.4 °F 35.2 °F 23.5 °F 53% 30.10 in 10.0 mi NW 5.8 mph - N/A   Scattered Clouds
10:55 PM 38.7 °F 33.6 °F 23.9 °F 55% 30.11 in 10.0 mi NW 6.9 mph - N/A   Clear
11:15 PM 38.5 °F 34.1 °F 23.9 °F 56% 30.10 in 10.0 mi NW 5.8 mph - N/A   Clear
11:34 PM 37.8 °F 34.2 °F 24.4 °F 59% 30.10 in 10.0 mi NW 4.6 mph - N/A   Clear
11:55 PM 37.4 °F - 24.6 °F 60% 30.10 in 10.0 mi Calm Calm - N/A   Clear